"Pseudo-MPEC" for P10LfOt

Created 2019 Jan 23 11:18:18 UT using Find_Orb

Click here for an explanation of pseudo-MPECs

 
 Astrometry: 
     P10LfOt  C2019 01 09?k=6*ogGeYi(F*W$yl6UA\7XtAstrometry'.:unjn_-*DVLEB_5F51
     P10LfOt  C2019 01 09(y'I['VyjJt^:hx!MvXSuT80$C):aUB`\redacted;EvT',TqV(/F51
     P10LfOt  C2019 01 09^+Y8CCq@'clicke'\.BsSMZJ[+d;+5Xg:prMc;p45Qy=ha_a;#hOF51
     P10LfOt KC2019 01 109#RKjlub?8WjLlAherec/gJ(YmX`qmH_i;bAf,h;naT%QZqM`5\(H21
     P10LfOt KC2019 01 10WK5%0XtLT:forXBV)d+5DVb_kxg)9QTmNer=E\v?.*Z@L6F/+xxbH21
     P10LfOt KC2019 01 10RVD*explanation0LGU/wt='T8SD^=xD;w,V4mI9^Uo(/S8\mkxBH21

Station data:
(F51) Pan-STARRS 1, Haleakala  (N20.707235 W156.255910)  US/Hawaii.
   Observers N. Primak, A. Schultz, S. Watters, J. Thiel, T. Goggia. Measurer
   PS1 Science Consortium. 1.8-m Ritchey-Chrétien + CCD.
(H21) Astronomical Research Observatory, Westfield  (N39.483057 W87.968270)
   US/Illinois. 0.76-m f/3.0 astrograph + CCD.

Orbital elements:  P10LfOt
   Perihelion 2019 Apr 27.099195 +/- 62.3 TT =  2:22:50 (JD 2458600.599195)
Epoch 2019 Jan 10.0 TT = JDT 2458493.5   Earth MOID: 0.3624   Ma: 0.0540
M 299.58382779 +/- 30               (J2000 ecliptic)          AutoNEOCP
n   0.56411415 +/- 0.201            Peri.  103.50917 +/- 59
a   1.45063465 +/- 0.345            Node    84.57980 +/- 11
e   0.1159327 +/- 0.147             Incl.   23.87550 +/- 10
P   1.75/638.16d           H 22.0   G  0.15   U 11.7  SR
q 1.28245858 +/- 0.297    Q 1.61881073 +/- 1.33
From 6 observations 2019 Jan. 9-10 (21.4 hr); mean residual 0".19
Residuals in arcseconds: 
190109 F51  .21-  .04-    190109 F51  .22+  .02-    190110 H21  .12+  .11-    
190109 F51  .00   .07+    190110 H21  .06-  .32-    190110 H21  .07-  .42+    

Ephemerides (geocentric):
Date (UTC) HH   RA              Dec         delta   r     elong  mag " sig PA
---- -- -- --  -------------   -----------  ------ ------ -----  --- ---- ---
2019 01 23 11  09 10 28.120   +65 15 29.65  .48318 1.3627 133.5 22.4 3902  82
2019 01 23 12  09 10 24.882   +65 17 07.27  .48325 1.3627 133.5 22.4 3926  82
2019 01 23 13  09 10 21.633   +65 18 44.75  .48332 1.3626 133.5 22.4 3949  82
2019 01 23 14  09 10 18.374   +65 20 22.11  .48339 1.3625 133.4 22.4 3973  82
2019 01 23 15  09 10 15.104   +65 21 59.33  .48347 1.3625 133.4 22.4 3996  82
2019 01 23 16  09 10 11.825   +65 23 36.42  .48354 1.3624 133.4 22.4 4020  82
2019 01 23 17  09 10 08.535   +65 25 13.38  .48361 1.3624 133.3 22.4 4044  82
2019 01 23 18  09 10 05.234   +65 26 50.21  .48369 1.3623 133.3 22.4 4068  82
2019 01 23 19  09 10 01.923   +65 28 26.91  .48376 1.3622 133.3 22.4 4091  82
2019 01 23 20  09 09 58.602   +65 30 03.48  .48383 1.3622 133.3 22.4 4115  82
2019 01 23 21  09 09 55.271   +65 31 39.91  .48391 1.3621 133.2 22.4 4139  82
2019 01 23 22  09 09 51.929   +65 33 16.22  .48398 1.3620 133.2 22.4 4163  82
2019 01 23 23  09 09 48.577   +65 34 52.39  .48406 1.3620 133.2 22.4 4187  82
2019 01 24 00  09 09 45.215   +65 36 28.43  .48413 1.3619 133.1 22.4 4212  82
2019 01 24 01  09 09 41.842   +65 38 04.33  .48421 1.3619 133.1 22.4 4236  82
2019 01 24 02  09 09 38.459   +65 39 40.10  .48428 1.3618 133.1 22.4 4260  82
2019 01 24 03  09 09 35.066   +65 41 15.74  .48436 1.3617 133.1 22.4 4284  82
2019 01 24 04  09 09 31.662   +65 42 51.25  .48443 1.3617 133.0 22.4 4309  82
2019 01 24 05  09 09 28.248   +65 44 26.63  .48451 1.3616 133.0 22.4 4333  82
2019 01 24 06  09 09 24.824   +65 46 01.87  .48459 1.3615 133.0 22.4 4358  82
2019 01 24 07  09 09 21.389   +65 47 36.98  .48466 1.3615 132.9 22.4 4382  82
2019 01 24 08  09 09 17.944   +65 49 11.95  .48474 1.3614 132.9 22.4 4407  82
2019 01 24 09  09 09 14.489   +65 50 46.79  .48482 1.3614 132.9 22.4 4432  82
2019 01 24 10  09 09 11.024   +65 52 21.50  .48489 1.3613 132.8 22.4 4457  82
2019 01 24 11  09 09 07.548   +65 53 56.08  .48497 1.3612 132.8 22.4 4481  82
2019 01 24 12  09 09 04.062   +65 55 30.52  .48505 1.3612 132.8 22.4 4506  82
2019 01 24 13  09 09 00.566   +65 57 04.82  .48513 1.3611 132.8 22.4 4531  82
2019 01 24 14  09 08 57.059   +65 58 38.99  .48521 1.3610 132.7 22.4 4556  82
2019 01 24 15  09 08 53.542   +66 00 13.03  .48528 1.3610 132.7 22.4 4582  82
2019 01 24 16  09 08 50.015   +66 01 46.93  .48536 1.3609 132.7 22.4 4607  82
2019 01 24 17  09 08 46.477   +66 03 20.70  .48544 1.3609 132.6 22.4 4632  82
2019 01 24 18  09 08 42.930   +66 04 54.34  .48552 1.3608 132.6 22.4 4657  82
2019 01 24 19  09 08 39.372   +66 06 27.84  .48560 1.3607 132.6 22.4 4683  82
2019 01 24 20  09 08 35.803   +66 08 01.20  .48568 1.3607 132.5 22.4 4708  82
2019 01 24 21  09 08 32.225   +66 09 34.43  .48576 1.3606 132.5 22.4 4733  81
2019 01 24 22  09 08 28.636   +66 11 07.52  .48584 1.3606 132.5 22.5 4759  81
2019 01 24 23  09 08 25.037   +66 12 40.48  .48592 1.3605 132.5 22.5 4785  81
2019 01 25 00  09 08 21.428   +66 14 13.30  .48600 1.3604 132.4 22.5 4810  81
2019 01 25 01  09 08 17.808   +66 15 45.99  .48608 1.3604 132.4 22.5 4836  81
2019 01 25 02  09 08 14.178   +66 17 18.54  .48616 1.3603 132.4 22.5 4862  81
2019 01 25 03  09 08 10.538   +66 18 50.96  .48624 1.3602 132.3 22.5 4888  81
2019 01 25 04  09 08 06.888   +66 20 23.24  .48632 1.3602 132.3 22.5 4914  81
2019 01 25 05  09 08 03.228   +66 21 55.38  .48640 1.3601 132.3 22.5 4940  81
2019 01 25 06  09 07 59.557   +66 23 27.39  .48649 1.3601 132.3 22.5 4966  81
2019 01 25 07  09 07 55.876   +66 24 59.26  .48657 1.3600 132.2 22.5 4992  81
2019 01 25 08  09 07 52.185   +66 26 31.00  .48665 1.3599 132.2 22.5 5018  81
2019 01 25 09  09 07 48.484   +66 28 02.60  .48673 1.3599 132.2 22.5 5044  81
2019 01 25 10  09 07 44.772   +66 29 34.06  .48682 1.3598 132.1 22.5 5070  81